Regional Weather Roundup
Issued by NWS

Home | Current Version | Previous Version | Text Only | Print | Product List | Glossary Off
Versions: 1 2 3 4 5 6 7 8 9 10 11 12 13 14 15 16 17 18 19 20 21 22 23 24 25 26 27 28 29 30 31 32 33 34 35 36 37 38 39 40 41 42 43 44 45 46 47 48 49 50

000
ASUS43 KTOP 210959
RWRKS

WEATHER ROUNDUP FOR KANSAS
NATIONAL WEATHER SERVICE GOODLAND KS
500 AM CDT THU AUG 21 2014

NOTE:  "FAIR" INDICATES FEW OR NO CLOUDS BELOW 12,000 FEET WITH NO
SIGNIFICANT WEATHER AND/OR OBSTRUCTIONS TO VISIBILITY.

KSZ001>006-013>018-027>032-041>047-211100-
NORTHWEST KANSAS

CITY           SKY/WX    TMP DP  RH WIND       PRES   REMARKS
GOODLAND       CLEAR     64  58  80 NW7       29.91R
HAYS           MOCLDY    79  59  50 S16       29.80S
HILL CITY      MOCLDY    82  62  50 S10G21    29.78R
RUSSELL        PTCLDY    80  58  46 S17G25    29.78S
$$

KSZ061>065-074>080-084>089-211100-
SOUTHWEST KANSAS

CITY           SKY/WX    TMP DP  RH WIND       PRES   REMARKS
DODGE CITY     CLEAR     78  63  59 S15       29.85S
ELKHART          N/A     73  60  63 S12         N/A
GARDEN CITY    CLEAR     75  62  64 S10       29.84F
GREAT BEND     CLEAR     79  57  47 S16G22    29.82S
LIBERAL        CLEAR     77  61  57 S15       29.90S
$$

KSZ066>073-081>083-090>101-211100-
SOUTHEAST KANSAS

CITY           SKY/WX    TMP DP  RH WIND       PRES   REMARKS
CHANUTE        CLEAR     77  69  76 S13       29.92S
COFFEYVILLE    CLEAR     79  71  76 S12       29.93R
HUTCHINSON     CLEAR     78  64  61 S16       29.86R
NEWTON         CLEAR     77  63  61 S17G25    29.91R
PARSONS        CLEAR     77  69  76 S6        29.94R
WICHITA INTL   PTCLDY    77  67  71 S14       29.88R
WICHITA JABRA  CLEAR     77  67  71 S16       29.88R
WINFIELD       CLEAR     79  69  71 S16       29.90R
$$

KSZ007>012-019>026-033>040-048>060-102>105-211100-
NORTHEAST KANSAS

CITY           SKY/WX    TMP DP  RH WIND       PRES   REMARKS
CONCORDIA      PTCLDY    77  66  68 S16G26    29.78F
EMPORIA        CLEAR     76  69  79 S15       29.88R
LAWRENCE       PTCLDY    82  69  64 S13G22    29.86F
MANHATTAN      CLEAR     80  67  64 S14G24    29.82S
OLATHE IND     PTCLDY    77  69  76 S14       29.90S
OLATHE EXE     MOCLDY    76  69  79 S10       29.89S
SALINA         CLEAR     79  65  62 S14       29.81S
TOPEKA BILLARD CLEAR     81  70  69 S15G23    29.85S
TOPEKA FORBES    N/A     79  69  71 S14       29.86S
$$



USA.gov is the U.S. government's official web portal to all federal, state and local government web resources and services.